Regional Weather Roundup
Issued by NWS Green Bay, WI

Home | Current Version | Previous Version | Graphics & Text | Print | Product List | Glossary Off
Versions: 1 2 3 4 5 6 7 8 9 10 11 12 13 14 15 16 17 18 19 20 21 22 23 24 25 26 27 28 29 30 31 32 33 34 35 36 37 38 39 40 41 42 43 44 45 46 47 48 49 50

000
ASUS43 KGRB 260011
RWRGRB

NORTH-CENTRAL AND NORTHEAST WISCONSIN REGIONAL WEATHER ROUNDUP
NATIONAL WEATHER SERVICE GREEN BAY WI
700 PM CDT MON MAY 25 2015

WIZ005-009-010>012-018-019-260100-
NORTH CENTRAL WISCONSIN

CITY           SKY/WX    TMP DP  RH WIND       PRES   REMARKS
IRONWOOD       CLOUDY    61  61 100 W3        29.70S
MANITOWISH WTR CLOUDY    64  58  80 W13G20    29.75S
ARBOR VITAE    MOSUNNY   67  59  75 W8        29.76S
EAGLE RIVER    PTSUNNY   67  57  71 W8        29.75S
LAND O LAKES   CLOUDY    66  58  77 W7        29.76S
RHINELANDER    MOSUNNY   69  57  65 W17G28    29.76F
PHILLIPS       MOSUNNY   66  58  75 SW5       29.75F
ANTIGO         PTSUNNY   67  61  79 W6        29.79R
TOMAHAWK       PTSUNNY   68  57  67 W7        29.77S
MERRILL        PTSUNNY   70  61  74 SW7       29.78S
$$

WIZ013-073-260100-
NORTHEAST WISCONSIN

CITY           SKY/WX    TMP DP  RH WIND       PRES   REMARKS
IRON MOUNTAIN  SUNNY     70  59  68 SW10      29.74R
MARINETTE      MOSUNNY   75  59  57 W9        29.75R
OCONTO         PTSUNNY   75  62  63 SW6       29.76S
$$

WIZ017-030-035>037-045-260100-
CENTRAL WISCONSIN

CITY           SKY/WX    TMP DP  RH WIND       PRES   REMARKS
MEDFORD        DRIZZLE   67  60  76 SW5       29.77S
WAUSAU         MOSUNNY   71  60  68 SW7       29.76R
MOSINEE        PTSUNNY   72  63  73 SW18      29.80R
MARSHFIELD     CLOUDY    70  59  68 SW12      29.79R
WISC RAPIDS    RAIN      66  60  81 W13       29.81F
STEVENS POINT  CLOUDY    64  61  92 SW6       29.80R
WAUPACA        MOSUNNY   72  65  79 SW8       29.79R
SHAWANO        MOSUNNY   76  60  56 SW7G16    29.77R
CLINTONVILLE   PTSUNNY   73  59  60 SW10      29.77R
$$

WIZ038-039-048-051-260100-
FOX VALLEY

CITY           SKY/WX    TMP DP  RH WIND       PRES   REMARKS
NWS GREEN BAY  PTSUNNY   75  63  66 SW12      29.78R
APPLETON       PTSUNNY   73  61  64 SW15      29.80R
OSHKOSH        PTSUNNY   76  61  59 SW13      29.80R
FOND DU LAC    SUNNY     76  60  57 SW15G25   29.82R
$$

WIZ022-050-052-260100-
EAST CENTRAL WISCONSIN

CITY           SKY/WX    TMP DP  RH WIND       PRES   REMARKS
STURGEON BAY   MOSUNNY   73  61  64 SW13      29.80R
MANITOWOC      SUNNY     76  62  62 SW13      29.81R
SHEBOYGAN      MOSUNNY   76  61  59 SW14G24   29.83R
$$

LMZ563-521-522-541>543-260100-
LAKESHORE

STATION/POSITION TIME  TEMP    WIND        PRES    VSBY  WAVE
                       AIR SEA DIR/SP/G                  HT/PER
                 (UTC) (F)     (DEG/KT/KT) (MB)    (MI)  (FT/S)
SHEBOYGAN LKSHOR 0000   71     190/ 15/ 17 1010.3R
KEWAUNEE LKSHORE 2300          250/ 13/ 17 1007.7F
TWO RIVERS CG    2355   55                 1010.4   3 1/2  2
NORTHPORT PIER   2300   58     150/  7/  8 1007.5S
N MID LAKE BUOY  2350   42 37  200/ 16/ 17 1008.0R         4/ 5
SISTER BAY LKSHO 2317   72     230/ 12/ 18   N/A
CHAMBERS ISLAND  2300   71     200/  3/ 10 1007.5R
MENOMINEE LKSHOR 2300   76     250/ 13/ 20 1007.8R
$$


USA.gov is the U.S. government's official web portal to all federal, state and local government web resources and services.